Location: Heiligenberg
(48.5381°N, 7.3897°E)
Time: 02:22:01
(UTC+00:00)

IDEFIX/ARIANE 42P - Pass Details

Date: 26 May 2022
Orbit: 785 x 802 km, 98.4° (Epoch: 26 June)

Event Time Altitude Azimuth Distance (km) Brightness Sun altitude
Rises 01:37:46 0° 16° (NNE) 3,325 7.4 -14.5°
Reaches altitude 10° 01:40:09 10° 20° (NNE) 2,391 6.4 -14.3°
Maximum altitude 01:45:23 63° 101° (ESE) 897 2.9 -13.9°
Enters shadow 01:49:54 14° 181° (S) 2,108 4.3 -13.4°
